Flag for Canada Weather past 2 weeks in Sherbrooke, Quebec, Canada

Now
63 °F

Fog.


Feels Like: 63 °F
Forecast: 62 / 84 °F
Wind: No wind

Location: Sherbrooke

Current Time: Jul 29, 2015 at 1:52:34 AM

Latest Report: Jul 29, 2015 at 1:04 AM


Visibility: 4 mi

Pressure: 29.96 "Hg

Humidity: 94%

Dew point: 61 °F

Location of SherbrookeLocation

Historic Weather in Sherbrooke — Graph

°F

Sherbrooke temperature yesterday

Maximum temperature yesterday: 82 °F (at 3:00 PM)
Minimum temperature yesterday: 59 °F (at 5:00 AM)
Average temperature yesterday: 70 °F

Past Weeks' High & Low Weather Summary

 TemperatureHumidityPressure
High82 °F (Jul 27, 4:00 PM)100% (Jul 14, 2:57 AM)30.14 "Hg (Jul 14, 2:57 AM)
Low39 °F (Jul 16, 4:03 AM)38% (Jul 17, 4:00 PM)29.53 "Hg (Jul 21, 2:00 PM)
Average65 °F83%29.85 "Hg
* Reported Jul 14 1:00 AM — Jul 29 1:04 AM, Sherbrooke, Weather by CustomWeather, © 2015

Note: Actual official high and low records may vary slightly from our data, if they occured in-between our weather recording intervals... More about our weather records

Advertising

Sherbrooke weather history for previous 24 hours

 ConditionsComfort  
Time TempWeatherWind HumidityBarometerVisibility
1:04 AM
Wed, Jul 29
63 °FFog.No wind94%29.96 "Hg4 mi
12:00 AM64 °FClear.3 mph100%29.95 "Hg9 mi
11:00 PM
Tue, Jul 28
66 °FClear.No wind94%29.96 "Hg9 mi
10:00 PM68 °FClear.2 mph94%29.96 "Hg9 mi
9:00 PM68 °FSunny.No wind94%29.96 "Hg9 mi
8:00 PM73 °FSunny.No wind83%29.95 "Hg9 mi
7:00 PM77 °FPassing clouds.3 mph79%29.95 "Hg9 mi
6:00 PM77 °FLight rain. Broken clouds.7 mph74%29.96 "Hg9 mi
5:00 PM79 °FSunny.9 mph58%29.93 "Hg9 mi
4:00 PM82 °FScattered clouds.14 mph48%29.93 "Hg9 mi
3:00 PM82 °FScattered clouds.12 mph51%29.94 "Hg9 mi
2:00 PM81 °FScattered clouds.10 mph58%29.94 "Hg9 mi
1:00 PM81 °FPartly sunny.9 mph54%29.95 "Hg9 mi
12:00 PM79 °FPassing clouds.9 mph65%29.96 "Hg9 mi
11:00 AM77 °FPassing clouds.6 mph69%29.98 "Hg9 mi
10:00 AM73 °FSunny.7 mph78%29.98 "Hg9 mi
9:00 AM70 °FSunny.6 mph83%29.99 "Hg9 mi
8:00 AM66 °FSunny.6 mph94%30.00 "Hg9 mi
7:01 AM63 °FFog.No wind100%30.01 "Hg6 mi
6:02 AM59 °FFog.2 mph100%29.99 "Hg1 mi
5:00 AM59 °FFog.No wind100%29.98 "Hg1 mi
4:00 AM63 °FClear.3 mph100%29.98 "Hg8 mi
3:49 AM63 °FFog.6 mph94%29.98 "Hg6 mi
3:02 AM63 °FFog.3 mph94%29.99 "Hg1 mi
2:03 AM63 °FFog.2 mph94%29.98 "Hg6 mi
1:00 AM64 °FOvercast.2 mph94%29.98 "Hg9 mi
Weather by CustomWeather, © 2015

See weather overviewHow to use our weather pages